Location: Auckland
(36.8670°S, 174.7670°E)
Time: 04:36:08
(UTC+12:00)

Courier 1B Rocket - Pass Details

Date: 22 July 2019
Orbit: 920 x 1202 km, 28.3° (Epoch: 20 August)

Event Time Altitude Azimuth Distance (km) Brightness Sun altitude
Rises 04:59:04 0° 298° (WNW) 4,086 - -29.4°
Reaches altitude 10° 05:02:09 10° 305° (NW) 3,106 - -28.8°
Exits shadow 05:06:35 30° 331° (NNW) 1,940 6.3 -27.9°
Maximum altitude 05:09:11 39° 10° (N) 1,664 6.2 -27.4°
Drops below altitude 10° 05:15:52 10° 75° (ENE) 2,956 8.5 -26.1°
Sets 05:18:44 0° 83° (E) 3,870 9.5 -25.5°
